sat.trackr.live / text

‹ back to catalog

THEOS-2 (T2V)

NORAD 58016 · 2023-155A

PAYLOAD ACTIVE UNKNOWN

§ Identity

Operator
Country
THAI
Launch date
2023-10-09
Launch site
FRGUI
Launch vehicle
Mass (kg)
RCS (m²)

External: N2YO · Heavens-Above · Gunter

§ Orbital elements

Epoch: 2026-05-25T03:39:41.204736Z

Period
97.19 min
Inclination
97.8882°
Eccentricity
0.0001533
Mean motion
14.81695727 rev/d
Perigee alt
622.9 km
Apogee alt
625.1 km
Semi-major
7,002.1 km
B*
9.4801e-5
RAAN
216.4793°
Arg perigee
91.6740°
Mean anomaly
268.4648°
Rev number
14,201

§ Raw data

THEOS-2 (T2V)1 58016U 23155A   26145.15256024  .00000694  00000+0  94801-4 0  99932 58016  97.8882 216.4793 0001533  91.6740 268.4648 14.81695727142011

JSON: /api/v1/satellites/58016 · /tle

For live sub-satellite position, see the globe view (requires WebGL).

§ Visibility from observer

Set your observer location to see the next 7 days of passes ≥ 10°. The values pass through the URL so the page stays shareable.

No JS? Fill the form by hand. The geolocation button needs JavaScript.

§ Radio — SatNOGS DB

ModeDescriptionDownlinkUplink
FM Mode S 2.244 GHz

1 transmitter · refreshed weekly from db.satnogs.org